Retour au catalogue

DELTA 1 DEB

ActifPO
NORAD 21469·DEBRIS·🇺🇸 United States

Lancé Jun 12, 1975 depuis Vandenberg Space Force Base

Loading…

Prochains Passages (prochaines 24 heures)

TLE

FraisSource: Space-Track

Époque: Sep 14, 2026, 03:51 UTC

1 21469U 75052FD  26257.16057626  .00000281  00000-0  11204-2 0  9997
2 21469  99.6720 135.3840 0364546 125.1019  25.8649 12.75242059642551

Suivez DELTA 1 DEB en temps réel avec AllMySat

Download on the App Store